Location: Gro� Glienicke
(52.4675°N, 13.1079°E)
Time: 00:52:33
(UTC+00:00)

Cosmos 1782 - Pass Details

Date: 06 July 2020
Orbit: 536 x 552 km, 82.5° (Epoch: 11 August)

Event Time Altitude Azimuth Distance (km) Brightness Sun altitude
Rises 23:45:03 0° 342° (NNW) 2,706 7.6 -14.6°
Reaches altitude 10° 23:47:22 10° 332° (NNW) 1,808 6.3 -14.6°
Maximum altitude 23:50:55 32° 269° (W) 940 3.9 -14.5°
Enters shadow 23:52:46 21° 222° (SW) 1,237 4.1 -14.5°
